Simultaneous Nadir Overpasses (SNOs) Predictions

Prediction of SNOs between FY3D and TERRA Satellite Orbit:

Table of predicted SNOs for the next 14.0 days since TLE Epoch: 7/21/2023
Index Date (FY3D) Time (FY3D) Lat,Lon (FY3D) SZA (FY3D ) Date (TERRA) Time (TERRA) Lat,Lon (TERRA) SZA (TERRA ) Distance(km) Time Diff (sec)
1 07/24/2023 00:32:34 73.78, 171.81 53.75 07/24/2023 00:33:31 73.78, 171.72 53.74 2.66 57
2 07/24/2023 01:23:17 -73.72, -20.72 126.32 07/24/2023 01:22:56 -73.70, -20.79 126.33 2.84 21
3 07/26/2023 12:36:38 -73.79, 170.82 125.72 07/26/2023 12:37:24 -73.79, 170.74 125.72 2.66 46
4 07/26/2023 13:27:24 73.73, -21.74 54.24 07/26/2023 13:26:46 73.72, -21.75 54.22 1.45 38
5 07/29/2023 00:40:44 73.80, 169.79 54.87 07/29/2023 00:41:12 73.83, 169.84 54.89 3.23 28
6 07/29/2023 01:31:27 -73.74, -22.74 125.19 07/29/2023 01:30:37 -73.75, -22.68 125.18 2.23 50
7 07/31/2023 12:44:48 -73.81, 168.78 124.52 07/31/2023 12:45:04 -73.83, 168.86 124.50 3.16 16
8 07/31/2023 13:35:33 73.71, -23.67 55.39 07/31/2023 13:34:27 73.71, -23.74 55.39 2.18 66
9 08/02/2023 23:58:17 -74.29, -0.71 123.41 08/02/2023 23:59:26 -74.15, 0.92 123.56 51.73 69
10 08/03/2023 00:48:54 73.80, 167.83 56.10 08/03/2023 00:48:53 73.82, 167.86 56.13 3.00 1



Historial Predications of SNOs between FY3D and TERRA
